{"data":{"norad_id":58887,"epoch":"2026-05-24T21:53:43.445760Z","epoch_age_seconds":93293,"freshness":"FRESH","line1":"1 58887U 24020M   26144.91230840  .00000539  00000+0  27093-4 0  9999","line2":"2 58887  53.1620 328.1955 0000880  86.7233 273.3870 15.34387695130907","mean_motion":15.34387695,"eccentricity":8.8e-5,"inclination_deg":53.162,"raan_deg":328.1955,"arg_perigee_deg":86.7233,"mean_anomaly_deg":273.387,"bstar":2.7093e-5,"rev_number":13090,"period_min":93.848510692078,"perigee_km":462.13781634509,"apogee_km":463.34181066427,"semimajor_km":6840.8768135047,"source":"CELESTRAK","updated_at":"2026-05-25T13:38:18.785955Z"}}